EW7072 Ponce PR US current weather conditions

sailwx.info

Wind from 136 at 9 knots gusting 20

Air temperature 31.7° C
Dewpoint 24.3° C

Last reported at 2020-Aug-13 16:01 UTC.
Time now 2020-Aug-13 17:16 UTC

Location: N 17°60' W 066°37'.
View on Google Maps.

See reports from other nearby stations

  
Tides and Currents Weather Stations Pressure Air Temp Water Temp Dewpoint Dewpoint Depression Visibility Wind Speed Wind Dir Waves Ship Positions
date/time (UTC)wind fromknots sea level pressurealtimeterstation pressurevisibilityair tempwater tempwave heightnotes
2020-Aug-13 16:01 136 9 gusting 20 31.7
2020-Aug-13 15:31 144 7 gusting 16 31.1
2020-Aug-13 15:15 156 6 gusting 15 30.6
2020-Aug-13 15:00 166 8 gusting 14 30.6
2020-Aug-13 14:30 162 7 gusting 13 30.6
2020-Aug-13 14:17 137 6 gusting 12 31.1
2020-Aug-13 14:15 132 6 gusting 12 31.1
2020-Aug-13 14:02 101 6 gusting 13 31.1
2020-Aug-13 13:31 149 1 gusting 11 30.6
2020-Aug-13 13:17 049 1 gusting 10 30.6
2020-Aug-13 13:01 128 3 gusting 9 30.0
2020-Aug-13 12:31 038 3 gusting 10 29.4
2020-Aug-13 12:16 066 6 gusting 11 28.9
2020-Aug-13 12:00 060 3 gusting 9 28.9
2020-Aug-13 11:31 072 4 gusting 7 27.8
2020-Aug-13 11:15 087 3 gusting 7 27.2
2020-Aug-13 11:01 055 2 gusting 5 26.7
2020-Aug-13 10:30 063 0 gusting 5 26.7
2020-Aug-13 10:15 053 26.7
2020-Aug-13 10:00 060 26.7
2020-Aug-13 09:30 086 3 gusting 6 27.2
2020-Aug-13 09:15 056 26.7
2020-Aug-13 09:00 030 27.2
2020-Aug-13 08:30 054 3 gusting 7 27.2
2020-Aug-13 08:15 072 2 gusting 8 27.2
2020-Aug-13 08:00 074 3 gusting 7 27.2
2020-Aug-13 07:30 059 27.2
2020-Aug-13 07:15 059 27.2
2020-Aug-13 06:46 059 27.2
2020-Aug-13 06:30 059 1 gusting 4 27.2
2020-Aug-13 06:15 067 1 gusting 4 27.2
2020-Aug-13 06:00 049 27.8
2020-Aug-13 05:30 055 27.8
2020-Aug-13 05:15 068 1 gusting 4 27.8
2020-Aug-13 05:00 067 2 gusting 4 28.3
2020-Aug-13 04:30 065 3 gusting 5 28.3
2020-Aug-13 04:15 079 2 gusting 5 28.3
2020-Aug-13 04:00 072 1 gusting 4 28.3
2020-Aug-13 03:15 078 2 gusting 5 28.3
2020-Aug-13 03:00 064 2 gusting 5 28.3
2020-Aug-13 02:32 067 3 gusting 6 28.9
2020-Aug-13 02:17 071 2 gusting 5 28.9
2020-Aug-13 02:01 062 3 gusting 7 28.9
2020-Aug-13 01:47 059 2 gusting 6 28.9
2020-Aug-13 01:31 059 3 gusting 5 28.9
2020-Aug-13 01:16 054 3 gusting 6 28.9
2020-Aug-13 01:01 059 2 gusting 6 28.9
2020-Aug-13 00:46 057 2 gusting 6 28.9
2020-Aug-13 00:32 064 1 gusting 5 29.4
2020-Aug-13 00:16 069 2 gusting 6 29.4
2020-Aug-13 00:01 066 3 gusting 6 29.4
2020-Aug-12 23:48 062 2 gusting 6 29.4
2020-Aug-12 23:31 142 0 gusting 5 30.0
2020-Aug-12 23:16 063 30.0
2020-Aug-12 23:01 130 3 gusting 11 30.0
2020-Aug-12 22:48 125 6 gusting 13 30.0
2020-Aug-12 22:31 132 5 gusting 13 30.6
2020-Aug-12 22:16 147 7 gusting 13 30.6
2020-Aug-12 22:02 137 6 gusting 13 30.6
2020-Aug-12 21:46 108 8 gusting 19 30.6
2020-Aug-12 21:31 162 6 gusting 16 30.6
2020-Aug-12 21:17 178 7 gusting 15 31.1
2020-Aug-12 21:01 103 9 gusting 15 31.1
2020-Aug-12 20:45 182 5 gusting 15 31.1
2020-Aug-12 20:31 151 7 gusting 14 31.1
2020-Aug-12 20:16 099 6 gusting 13 31.1
2020-Aug-12 20:02 143 6 gusting 11 30.6
2020-Aug-12 19:46 043 5 gusting 19 31.1
2020-Aug-12 19:31 150 8 gusting 16 31.7
2020-Aug-12 19:16 136 7 gusting 15 32.2
2020-Aug-12 19:01 102 6 gusting 17 32.8
2020-Aug-12 18:46 096 10 gusting 18 32.8
2020-Aug-12 18:31 187 10 gusting 16 33.3
2020-Aug-12 18:16 168 8 gusting 13 32.8
2020-Aug-12 18:01 161 8 gusting 15 32.8
2020-Aug-12 17:46 135 11 gusting 18 32.8
2020-Aug-12 17:30 159 10 gusting 14 32.8
2020-Aug-12 17:17 180 6 gusting 11 33.3
2020-Aug-12 17:01 170 7 gusting 14 33.9
2020-Aug-12 16:45 131 6 gusting 14 34.4
2020-Aug-12 16:31 153 2 gusting 13 33.9
2020-Aug-12 16:16 131 7 gusting 13 33.3
2020-Aug-12 16:00 173 5 gusting 13 33.3
2020-Aug-12 15:46 138 6 gusting 10 32.8
2020-Aug-12 15:30 150 6 gusting 10 33.3
2020-Aug-12 15:15 140 3 gusting 11 33.3
2020-Aug-12 15:00 147 6 gusting 13 33.3
2020-Aug-12 14:45 075 5 gusting 13 32.2
2020-Aug-12 14:30 052 6 gusting 13 32.8
2020-Aug-12 14:15 217 4 gusting 11 32.8
2020-Aug-12 14:00 144 5 gusting 11 32.8
2020-Aug-12 13:45 096 4 gusting 9 32.2
2020-Aug-12 13:30 074 2 gusting 9 31.7
2020-Aug-12 13:15 058 4 gusting 8 31.7
2020-Aug-12 13:00 155 30.6
2020-Aug-12 12:47 045 0 gusting 3 30.0
2020-Aug-12 12:33 058 29.4
2020-Aug-12 12:17 057 1 gusting 4 28.9
2020-Aug-12 12:01 042 0 gusting 3 28.3
2020-Aug-12 11:46 040 0 gusting 3 27.2
2020-Aug-12 11:30 017 26.7
2020-Aug-12 11:16 017 26.1
2020-Aug-12 11:00 017 25.6
2020-Aug-12 10:46 017 25.6
2020-Aug-12 10:31 017 25.6
2020-Aug-12 10:15 017 25.6
2020-Aug-12 10:00 017 25.6
2020-Aug-12 09:45 017 25.6
2020-Aug-12 09:30 017 26.1
2020-Aug-12 09:16 038 1 gusting 4 26.1
2020-Aug-12 09:00 032 26.1
2020-Aug-12 08:45 032 0 gusting 3 26.1
2020-Aug-12 08:30 032 26.1
2020-Aug-12 08:16 020 1 gusting 3 26.1
2020-Aug-12 08:00 035 1 gusting 5 26.1
2020-Aug-12 07:45 046 26.7
2020-Aug-12 07:31 033 0 gusting 2 26.7
2020-Aug-12 07:16 048 26.7
2020-Aug-12 07:00 041 26.7
2020-Aug-12 06:45 058 26.7
2020-Aug-12 06:30 048 26.7
2020-Aug-12 06:15 033 1 gusting 5 26.7
2020-Aug-12 06:00 046 2 gusting 4 26.7
2020-Aug-12 05:45 029 26.7
2020-Aug-12 05:30 028 0 gusting 3 26.7
2020-Aug-12 05:15 036 26.7
2020-Aug-12 05:00 050 1 gusting 4 26.7
2020-Aug-12 04:45 065 2 gusting 4 26.7
2020-Aug-12 04:30 057 2 gusting 5 26.7
2020-Aug-12 04:15 033 2 gusting 5 26.7
2020-Aug-12 04:00 036 2 gusting 7 27.2
2020-Aug-12 03:45 031 0 gusting 3 27.2
2020-Aug-12 03:30 034 27.2
2020-Aug-12 03:16 020 27.2
2020-Aug-12 03:03 034 0 gusting 3 27.2
2020-Aug-12 03:00 039 27.2
2020-Aug-12 02:30 067 2 gusting 6 27.8
2020-Aug-12 02:17 086 2 gusting 6 28.3
2020-Aug-12 02:02 078 3 gusting 6 28.3
2020-Aug-12 01:47 080 2 gusting 6 28.3
2020-Aug-12 01:30 135 2 gusting 6 28.3
2020-Aug-12 01:15 083 1 gusting 6 28.3
2020-Aug-12 01:00 069 2 gusting 6 28.3
2020-Aug-12 00:30 161 0 gusting 6 28.9
2020-Aug-12 00:15 132 2 gusting 7 28.9
2020-Aug-12 00:00 157 1 gusting 6 28.9
2020-Aug-11 23:45 177 6 gusting 11 29.4
2020-Aug-11 23:33 132 5 gusting 12 29.4
2020-Aug-11 23:16 066 4 gusting 10 29.4
2020-Aug-11 23:01 126 5 gusting 12 29.4
2020-Aug-11 22:47 137 6 gusting 13 29.4
2020-Aug-11 22:31 103 6 gusting 14 30.0
2020-Aug-11 22:17 148 6 gusting 14 30.0
2020-Aug-11 22:02 126 6 gusting 13 30.0
2020-Aug-11 21:47 150 8 gusting 16 30.0
2020-Aug-11 21:31 180 7 gusting 13 30.0
2020-Aug-11 21:16 127 8 gusting 18 30.0
2020-Aug-11 21:01 118 8 gusting 16 30.6
2020-Aug-11 20:46 147 6 gusting 16 30.6
2020-Aug-11 20:31 161 7 gusting 18 30.6
2020-Aug-11 20:16 145 7 gusting 14 31.1
2020-Aug-11 20:02 161 6 gusting 14 31.1
2020-Aug-11 19:46 159 9 gusting 18 30.6
2020-Aug-11 19:31 172 9 gusting 18 31.1
2020-Aug-11 19:16 157 11 gusting 18 31.1
2020-Aug-11 19:01 167 9 gusting 18 31.7
2020-Aug-11 18:46 165 9 gusting 16 31.7
2020-Aug-11 18:30 183 9 gusting 18 31.7
2020-Aug-11 18:15 140 11 gusting 19 31.7
2020-Aug-11 18:00 173 9 gusting 19 32.2
2020-Aug-11 17:45 161 9 gusting 19 31.7
2020-Aug-11 17:31 155 10 gusting 18 31.7
2020-Aug-11 17:18 137 7 gusting 16 31.7
2020-Aug-11 17:01 126 10 gusting 18 32.2